Zurück zum Katalog

BREEZE-M R/B

AktivHEO
NORAD 36793·ROCKET BODY·🇷🇺 Russia

Gestartet Jul 10, 2010 von Baikonur Cosmodrome

Loading…

Nächste Überflüge (nächste 24 Stunden)

TLE

AktuellSource: Space-Track

Epoche: Sep 14, 2026, 11:50 UTC

1 36793U 10034B   26257.49358096 -.00000329  00000-0  00000-0 0  9997
2 36793  18.5595  83.8137 5551460 118.3565 292.3899  2.04332290120761

Verfolge BREEZE-M R/B in Echtzeit mit AllMySat

Download on the App Store